{"data":{"norad_id":54061,"intl_designator":"2022-136L","name":"STARLINK-5209","alt_names":[],"object_type":"PAYLOAD","status":"ACTIVE","operator":null,"country":"US","launch_date":"2022-10-20","launch_site_code":"AFETR","launch_vehicle":null,"mission":null,"orbit_class":"UNKNOWN","rcs_meters":null,"size_class":null,"mass_kg":null,"dimensions":null,"purposes":["comms"],"wikipedia_slug":null,"has_3d_model":false,"image_url":null,"decayed_at":null,"tle_current":{"epoch":"2026-09-20T08:54:30.389184Z","epoch_age_seconds":97671,"freshness":"FRESH","line1":"1 54061U 22136L   26263.37118506  .00000932  00000+0  38714-4 0  9990","line2":"2 54061  53.1613 142.6379 0001263  89.6957 270.4190 15.34389520216894","mean_motion":15.3438952,"eccentricity":0.0001263,"inclination_deg":53.1613,"raan_deg":142.6379,"arg_perigee_deg":89.6957,"mean_anomaly_deg":270.419,"bstar":3.8714e-5,"rev_number":21689,"period_min":93.848399068836,"perigee_km":461.8703870965,"apogee_km":463.5983912094,"semimajor_km":6840.871389153,"source":"CELESTRAK","updated_at":"2026-09-21T09:00:33.077579Z"}}}